WetterOnline ( http://www.wetteronline.de )

Wetter aktuell Ingolstadt

Aktuelles Wetter: Weißenburg (424m)

6-stündlich | Neueste Meldungen
Ortszeit Temperatur Wetter
Mo, 23.07. 2:00 16.2° C bedeckt
So, 22.07. 20:00 18.9° C bewölkt
So, 22.07. 14:00 18.0° C bedeckt
So, 22.07. 8:00 16.5° C Sprühregen
So, 22.07. 2:00 16.6° C leichter Regen
Sa, 21.07. 20:00 17.3° C Sprühregen
Sa, 21.07. 14:00 17.6° C leichter Regen
Sa, 21.07. 8:00 18.8° C bedeckt
Ortszeit Temperatur Wetter
Mo, 23.07. 6:00 16.0° C bedeckt
Mo, 23.07. 5:50 16.0° C bedeckt
Mo, 23.07. 5:40 15.9° C bewölkt
Mo, 23.07. 5:30 15.9° C bewölkt
Mo, 23.07. 5:20 15.9° C bewölkt
Mo, 23.07. 5:10 16.0° C wolkig
Mo, 23.07. 5:00 16.0° C bewölkt
Mo, 23.07. 4:30 16.0° C wolkig
Mo, 23.07. 4:00 16.0° C bedeckt
Mo, 23.07. 3:30 16.3° C bedeckt
Mo, 23.07. 3:00 16.2° C bewölkt
Ortszeit Relative Feuchte Sichtweite
Mo, 23.07. 2:00 100% 1.2 km
So, 22.07. 20:00 87% 9 km
So, 22.07. 14:00 86% 17 km
So, 22.07. 8:00 98% 3.5 km
So, 22.07. 2:00 99% 2.9 km
Sa, 21.07. 20:00 98% 6 km
Sa, 21.07. 14:00 94% 6 km
Sa, 21.07. 8:00 79% 30 km
Ortszeit Relative Feuchte Sichtweite
Mo, 23.07. 6:00 100% 2.1 km
Mo, 23.07. 5:50 100% -
Mo, 23.07. 5:40 100% -
Mo, 23.07. 5:30 100% 1.7 km
Mo, 23.07. 5:20 100% -
Mo, 23.07. 5:10 100% -
Mo, 23.07. 5:00 100% 1.6 km
Mo, 23.07. 4:30 100% 1.4 km
Mo, 23.07. 4:00 100% 1.4 km
Mo, 23.07. 3:30 100% 1.6 km
Mo, 23.07. 3:00 100% 1.4 km
Ortszeit Niederschlagsmenge Niederschlagsart
Mo, 23.07. 2:00 0.1 l/m2 in 6 Std. Regen
So, 22.07. 20:00 0.1 l/m2 in 12 Std. Regen
So, 22.07. 14:00 0.1 l/m2 in 6 Std. Regen
So, 22.07. 8:00 4 l/m2 in 12 Std. Regen
So, 22.07. 2:00 2 l/m2 in 6 Std. Regen
Sa, 21.07. 20:00 18 l/m2 in 12 Std. Regen
Sa, 21.07. 14:00 17 l/m2 in 6 Std. Regen
Sa, 21.07. 8:00 0.1 l/m2 in 12 Std. Regen
Ortszeit Niederschlagsmenge Niederschlagsart
Mo, 23.07. 6:00 0.0 l/m2 in 1 Std. -
Mo, 23.07. 5:50 keine Meldung -
Mo, 23.07. 5:40 keine Meldung -
Mo, 23.07. 5:30 0.0 l/m2 in 1 Std. -
Mo, 23.07. 5:20 keine Meldung -
Mo, 23.07. 5:10 keine Meldung -
Mo, 23.07. 5:00 0.0 l/m2 in 1 Std. -
Mo, 23.07. 4:30 0.0 l/m2 in 1 Std. -
Mo, 23.07. 4:00 0.0 l/m2 in 1 Std. -
Mo, 23.07. 3:30 0.0 l/m2 in 1 Std. -
Mo, 23.07. 3:00 0.0 l/m2 in 1 Std. -
Ortszeit Stärke Spitze Richtung
km/h Bft. km/h Grad Sektor
Mo, 23.07. 2:00 4 1 11 180° S
So, 22.07. 20:00 7 2 18 360° N
So, 22.07. 14:00 11 2 22 10° N
So, 22.07. 8:00 6 1 13 310° NW
So, 22.07. 2:00 4 1 14 340° N
Sa, 21.07. 20:00 4 1 11 40° NO
Sa, 21.07. 14:00 4 1 18 50° NO
Sa, 21.07. 8:00 7 2 25 200° S
Ortszeit Stärke Spitze Richtung
km/h Bft. km/h Grad Sektor
Mo, 23.07. 6:00 4 1 7 340° N
Mo, 23.07. 5:50 4 1 - 340° N
Mo, 23.07. 5:40 4 1 - 340° N
Mo, 23.07. 5:30 4 1 7 320° NW
Mo, 23.07. 5:20 4 1 - 320° NW
Mo, 23.07. 5:10 4 1 - 340° N
Mo, 23.07. 5:00 4 1 4 330° NW
Mo, 23.07. 4:30 4 1 4 220° SW
Mo, 23.07. 4:00 0 0 4 - -
Mo, 23.07. 3:30 2 1 4 210° SW
Mo, 23.07. 3:00 4 1 4 170° S
Ortszeit Untergrenze Bedeckung Gattung
total tief tief mittel hoch
Mo, 23.07. 2:00 3900 m 8/8 8/8 - - -
So, 22.07. 20:00 1800 m 8/8 5/8 - - -
So, 22.07. 14:00 240 m 8/8 8/8 - - -
So, 22.07. 8:00 180 m 8/8 8/8 - - -
So, 22.07. 2:00 90 m 7/8 7/8 - - -
Sa, 21.07. 20:00 1350 m 8/8 8/8 - - -
Sa, 21.07. 14:00 300 m 7/8 7/8 - - -
Sa, 21.07. 8:00 2100 m 8/8 8/8 - - -
Ortszeit Bedeckungsgrad in Achtel und Wolkenuntergrenze
Mo, 23.07. 6:00 8(2400m)
Mo, 23.07. 5:50 8(2400m)
Mo, 23.07. 5:40 7(2700m) 8(3600m)
Mo, 23.07. 5:30 5(2400m) 8(3600m)
Mo, 23.07. 5:20 5(2400m) 8(3600m)
Mo, 23.07. 5:10 3(2700m) 8(3600m)
Mo, 23.07. 5:00 4(2700m) 8(3300m)
Mo, 23.07. 4:30 1(2100m) 8(3000m) 8(4500m)
Mo, 23.07. 4:00 7(3000m) 8(3600m) 8(4500m)
Mo, 23.07. 3:30 8(2700m) 8(4500m)
Mo, 23.07. 3:00 7(2400m) 8(4200m)
Ortszeit Luftdruck NN (hPa) Tendenz (hPa in 3 Std.)
Mo, 23.07. 2:00 1016 0,0
So, 22.07. 20:00 1014 0,0
So, 22.07. 14:00 1014 + 0,4
So, 22.07. 8:00 1013 + 0,5
So, 22.07. 2:00 1013 0,0
Sa, 21.07. 20:00 1012 0,0
Sa, 21.07. 14:00 1013 + 0,2
Sa, 21.07. 8:00 1011 + 0,6
Ortszeit Luftdruck NN (hPa) Tendenz (hPa in 3 Std.)
Mo, 23.07. 6:00 1016 + 0,5
Mo, 23.07. 5:50 1016 keine Meldung
Mo, 23.07. 5:40 1016 keine Meldung
Mo, 23.07. 5:30 1016 + 0,1
Mo, 23.07. 5:20 1016 keine Meldung
Mo, 23.07. 5:10 1016 keine Meldung
Mo, 23.07. 5:00 1016 0,0
Mo, 23.07. 4:30 1016 - 0,1
Mo, 23.07. 4:00 1016 0,0
Mo, 23.07. 3:30 1016 - 0,2
Mo, 23.07. 3:00 1016 - 0,3
Ortszeit Schneehöhe (cm)
Mo, 23.07. 2:00 -
So, 22.07. 20:00 -
So, 22.07. 14:00 -
So, 22.07. 8:00 -
So, 22.07. 2:00 -
Sa, 21.07. 20:00 -
Sa, 21.07. 14:00 -
Sa, 21.07. 8:00 -
Ortszeit Schneehöhe (cm)
Mo, 23.07. 6:00 -
Mo, 23.07. 5:50 -
Mo, 23.07. 5:40 -
Mo, 23.07. 5:30 -
Mo, 23.07. 5:20 -
Mo, 23.07. 5:10 -
Mo, 23.07. 5:00 -
Mo, 23.07. 4:30 -
Mo, 23.07. 4:00 -
Mo, 23.07. 3:30 -
Mo, 23.07. 3:00 -
Link zu dieser Seite / Seite empfehlen

Das Wetter in ...